Location: Angwan Shehu
(11.2514°N, 7.4613°E)
Time: 22:30:46
(UTC+00:00)

Vanguard 3 - Pass Details

Date: 01 August 2021
Orbit: 510 x 3260 km, 33.3° (Epoch: 18 September)

Event Time Altitude Azimuth Distance (km) Brightness Sun altitude
Rises 17:58:38 0° 281° (WNW) 5,516 14.1 -1.7°
Reaches altitude 10° 18:02:20 10° 291° (WNW) 4,871 13.3 -2.6°
Maximum altitude 18:15:53 36° 353° (N) 4,061 11.0 -5.7°
Drops below altitude 10° 18:33:21 10° 54° (NE) 6,183 11.3 -9.8°
Sets 18:38:56 0° 62° (ENE) 7,104 11.6 -11.0°
